Date String (YYYY-MM-DD hh:mm:ss) UTC,Instrument flags,absolute air pressure of the measurement (hPa),sample flow rate (lpm),inlet stack bypass flow (lpm),air temperature of the measurement (°C),ambient temperature measured by the external sensor (°C),aerosol sample conditioner tube jacket temperature (°C),OPC LED temperature (°C),internal box temperature (°C),relative humidity of the measurement (%),span deviation,mass concentration of particles derived from Lorenz-Mie calculation of OPC scattering (μg/m³),mass concentration of particles derived from Lorenz-Mie calculation of OPC scattering (μg/m³),mass concentration of particles derived from Lorenz-Mie calculation of OPC scattering (μg/m³)
DateTimeUTC,F1_M11,P_M11,Q1_M11,Q2_M11,T1_M11,T2_M11,T3_M11,T4_M11,T5_M11,U1_M11,ZSPAN_M11,X2_M11,X0_M11,X1_M11
2023-12-17 02:00:00,SystemResetWarning,0831.1,5.00,000.00,025.8,024.7,000.0,034.2,027.2,7.8,0000.0,0000.32,0000.59,0000.24
2023-12-17 02:01:00,SystemResetWarning,0831.0,5.00,000.00,025.8,024.7,000.0,034.2,027.2,7.7,0000.0,0000.33,0000.58,0000.25
2023-12-17 02:02:00,SystemResetWarning,0831.1,5.00,000.00,025.8,024.7,000.0,034.2,027.1,7.5,0000.0,0000.34,0000.59,0000.26
2023-12-17 02:03:00,SystemResetWarning,0831.0,5.00,000.00,025.8,024.7,000.0,034.2,027.1,7.6,0000.0,0000.32,0000.56,0000.25
2023-12-17 02:04:00,SystemResetWarning,0831.0,5.00,000.00,025.8,024.7,000.0,034.2,027.1,7.6,0000.0,0000.33,0000.56,0000.26
2023-12-17 02:05:00,SystemResetWarning,0831.0,5.00,000.00,025.8,024.7,000.0,034.2,027.1,7.5,0000.0,0000.34,0000.58,0000.27
2023-12-17 02:06:00,SystemResetWarning,0831.1,5.00,000.00,025.8,024.6,000.0,034.2,027.1,7.5,0000.0,0000.35,0000.60,0000.27
2023-12-17 02:07:00,SystemResetWarning,0831.0,5.00,000.00,025.8,024.6,000.0,034.2,027.1,7.7,0000.0,0000.34,0000.55,0000.27
2023-12-17 02:08:00,SystemResetWarning,0831.0,5.00,000.00,025.8,024.7,000.0,034.2,027.1,7.7,0000.0,0000.34,0000.54,0000.27
2023-12-17 02:09:00,SystemResetWarning,0831.0,5.00,000.00,025.8,024.6,000.0,034.2,027.1,7.7,0000.0,0000.34,0000.54,0000.27
2023-12-17 02:10:00,SystemResetWarning,0831.0,5.00,000.00,025.8,024.6,000.0,034.1,027.1,7.6,0000.0,0000.35,0000.55,0000.28
2023-12-17 02:11:00,SystemResetWarning,0831.0,4.99,000.00,025.8,024.6,000.0,034.1,027.1,7.6,0000.0,0000.37,0000.59,0000.28
2023-12-17 02:12:00,SystemResetWarning,0830.9,5.00,000.00,025.8,024.6,000.0,034.1,027.1,7.6,0000.0,0000.37,0000.53,0000.29
2023-12-17 02:13:00,SystemResetWarning,0830.9,5.00,000.00,025.8,024.6,000.0,034.1,027.0,7.5,0000.0,0000.37,0000.52,0000.30
2023-12-17 02:14:00,SystemResetWarning,0830.9,5.00,000.00,025.8,024.6,000.0,034.1,027.0,7.5,0000.0,0000.38,0000.55,0000.30
2023-12-17 02:15:00,SystemResetWarning,0830.9,5.00,000.00,025.8,024.6,000.0,034.1,027.1,7.5,0000.0,0000.38,0000.55,0000.30
2023-12-17 02:16:00,SystemResetWarning,0830.9,5.02,000.00,025.7,024.6,000.0,034.1,027.1,7.5,0000.0,0000.37,0000.54,0000.30
2023-12-17 02:17:00,SystemResetWarning,0831.0,4.99,000.00,025.7,024.6,000.0,034.1,027.1,7.5,0000.0,0000.35,0000.51,0000.29
2023-12-17 02:18:00,SystemResetWarning,0830.9,4.99,000.00,025.7,024.6,000.0,034.1,027.1,7.6,0000.0,0000.38,0000.57,0000.30
2023-12-17 02:19:00,SystemResetWarning,0830.9,5.01,000.00,025.8,024.6,000.0,034.1,027.1,7.5,0000.0,0000.38,0000.58,0000.30
2023-12-17 02:20:00,SystemResetWarning,0830.9,5.01,000.00,025.8,024.6,000.0,034.1,027.1,7.6,0000.0,0000.38,0000.57,0000.30
2023-12-17 02:21:00,SystemResetWarning,0830.9,4.98,000.00,025.8,024.6,000.0,034.1,027.1,7.6,0000.0,0000.37,0000.56,0000.29
2023-12-17 02:22:00,SystemResetWarning,0831.0,5.00,000.00,025.8,024.7,000.0,034.1,027.1,7.6,0000.0,0000.35,0000.51,0000.29
2023-12-17 02:23:00,SystemResetWarning,0830.9,5.00,000.00,025.7,024.7,000.0,034.1,027.1,7.6,0000.0,0000.33,0000.46,0000.28
2023-12-17 02:24:00,SystemResetWarning,0830.9,5.00,000.00,025.8,024.6,000.0,034.1,027.1,7.6,0000.0,0000.33,0000.48,0000.27
2023-12-17 02:25:00,SystemResetWarning,0830.9,5.00,000.00,025.7,024.6,000.0,034.1,027.1,7.6,0000.0,0000.33,0000.49,0000.27
2023-12-17 02:26:00,SystemResetWarning,0830.9,5.00,000.00,025.7,024.6,000.0,034.1,027.0,7.7,0000.0,0000.35,0000.55,0000.27
2023-12-17 02:27:00,SystemResetWarning,0830.9,4.99,000.00,025.7,024.6,000.0,034.1,027.0,7.8,0000.0,0000.36,0000.65,0000.27
2023-12-17 02:28:00,SystemResetWarning,0830.9,4.99,000.00,025.7,024.6,000.0,034.1,027.1,7.9,0000.0,0000.37,0000.72,0000.27
2023-12-17 02:29:00,SystemResetWarning,0830.9,5.00,000.00,025.7,024.6,000.0,034.1,027.0,8.1,0000.0,0000.34,0000.66,0000.27
2023-12-17 02:30:00,SystemResetWarning,0830.9,5.02,000.00,025.7,024.6,000.0,034.1,027.0,8.0,0000.0,0000.33,0000.63,0000.27
2023-12-17 02:31:00,SystemResetWarning,0830.9,5.00,000.00,025.7,024.6,000.0,034.1,027.0,8.1,0000.0,0000.33,0000.63,0000.27
2023-12-17 02:32:00,SystemResetWarning,0830.9,5.00,000.00,025.7,024.6,000.0,034.1,027.0,8.1,0000.0,0000.34,0000.65,0000.27
2023-12-17 02:33:00,SystemResetWarning,0830.9,5.00,000.00,025.7,024.6,000.0,034.1,027.0,8.0,0000.0,0000.35,0000.66,0000.28
2023-12-17 02:34:00,SystemResetWarning,0830.9,5.00,000.00,025.7,024.6,000.0,034.0,027.0,7.9,0000.0,0000.35,0000.67,0000.28
2023-12-17 02:35:00,SystemResetWarning,0830.9,5.00,000.00,025.7,024.5,000.0,034.0,027.0,7.8,0000.0,0000.35,0000.65,0000.28
2023-12-17 02:36:00,SystemResetWarning,0831.0,5.00,000.00,025.7,024.5,000.0,034.0,026.9,7.9,0000.0,0000.34,0000.62,0000.29
2023-12-17 02:37:00,SystemResetWarning,0830.9,5.00,000.00,025.7,024.5,000.0,034.0,026.9,7.9,0000.0,0000.32,0000.56,0000.28
2023-12-17 02:38:00,SystemResetWarning,0830.9,5.00,000.00,025.7,024.5,000.0,034.0,026.9,7.9,0000.0,0000.30,0000.49,0000.27
2023-12-17 02:39:00,SystemResetWarning,0830.9,5.01,000.00,025.6,024.4,000.0,034.0,026.9,7.9,0000.0,0000.29,0000.37,0000.27
2023-12-17 02:40:00,SystemResetWarning,0830.9,5.00,000.00,025.6,024.4,000.0,034.0,026.9,8.0,0000.0,0000.30,0000.38,0000.27
2023-12-17 02:41:00,SystemResetWarning,0830.9,4.98,000.00,025.6,024.4,000.0,034.0,026.8,7.9,0000.0,0000.31,0000.39,0000.27
2023-12-17 02:42:00,SystemResetWarning,0830.9,5.01,000.00,025.6,024.4,000.0,034.0,026.8,7.9,0000.0,0000.30,0000.38,0000.26
2023-12-17 02:43:00,SystemResetWarning,0830.9,5.01,000.00,025.6,024.4,000.0,034.0,026.8,7.9,0000.0,0000.30,0000.39,0000.26
2023-12-17 02:44:00,SystemResetWarning,0830.9,5.00,000.00,025.6,024.4,000.0,034.0,026.9,8.0,0000.0,0000.29,0000.38,0000.25
2023-12-17 02:45:00,SystemResetWarning,0831.0,5.00,000.00,025.6,024.4,000.0,033.9,026.9,8.0,0000.0,0000.28,0000.37,0000.24
2023-12-17 02:46:00,SystemResetWarning,0830.9,4.99,000.00,025.6,024.3,000.0,033.9,026.8,8.0,0000.0,0000.29,0000.39,0000.24
2023-12-17 02:47:00,SystemResetWarning,0830.9,5.00,000.00,025.6,024.3,000.0,033.9,026.8,7.9,0000.0,0000.29,0000.40,0000.24
2023-12-17 02:48:00,SystemResetWarning,0830.9,4.99,000.00,025.6,024.3,000.0,033.9,026.8,7.8,0000.0,0000.31,0000.43,0000.25
2023-12-17 02:49:00,SystemResetWarning,0830.9,4.99,000.00,025.5,024.3,000.0,033.9,026.9,7.9,0000.0,0000.31,0000.44,0000.25
2023-12-17 02:50:00,SystemResetWarning,0831.0,5.02,000.00,025.5,024.3,000.0,033.9,026.8,7.7,0000.0,0000.31,0000.45,0000.25
2023-12-17 02:51:00,SystemResetWarning,0830.9,5.00,000.00,025.5,024.3,000.0,033.9,026.8,7.7,0000.0,0000.32,0000.45,0000.25
2023-12-17 02:52:00,SystemResetWarning,0830.9,4.99,000.00,025.5,024.3,000.0,033.9,026.8,7.8,0000.0,0000.31,0000.43,0000.25
2023-12-17 02:53:00,SystemResetWarning,0830.9,5.02,000.00,025.5,024.4,000.0,033.9,026.8,7.9,0000.0,0000.32,0000.49,0000.25
2023-12-17 02:54:00,SystemResetWarning,0830.9,5.00,000.00,025.5,024.4,000.0,033.9,026.8,7.9,0000.0,0000.33,0000.49,0000.26
2023-12-17 02:55:00,SystemResetWarning,0831.0,4.98,000.00,025.5,024.3,000.0,033.9,026.8,8.0,0000.0,0000.33,0000.50,0000.26
2023-12-17 02:56:00,SystemResetWarning,0831.0,5.00,000.00,025.5,024.3,000.0,033.9,026.8,8.0,0000.0,0000.33,0000.50,0000.26
2023-12-17 02:57:00,SystemResetWarning,0831.0,5.01,000.00,025.5,024.3,000.0,033.9,026.7,7.9,0000.0,0000.33,0000.48,0000.26
2023-12-17 02:58:00,SystemResetWarning,0831.0,5.01,000.00,025.5,024.3,000.0,033.9,026.7,7.8,0000.0,0000.34,0000.53,0000.26
2023-12-17 02:59:00,SystemResetWarning,0831.1,4.99,000.00,025.5,024.3,000.0,033.8,026.7,7.8,0000.0,0000.36,0000.59,0000.26
